Location: Tamazert
(32.6352°N, 5.2072°W)
Time: 03:42:02
(UTC+00:00)

Vanguard 2 Rocket - Pass Details

Date: 10 October 2022
Orbit: 555 x 3321 km, 32.9° (Epoch: 05 December)

Event Time Altitude Azimuth Distance (km) Brightness Sun altitude
Rises 22:09:06 0° 261° (W) 7,292 11.9 -52.3°
Reaches altitude 10° 22:14:13 10° 262° (W) 6,170 11.4 -53.2°
Enters shadow 22:27:20 51° 264° (W) 3,268 9.5 -55.3°
Maximum altitude 22:33:14 90° 3° (N) 2,443 - -56.2°
Drops below altitude 10° 22:44:36 10° 86° (E) 3,940 - -57.8°
Sets 22:47:07 0° 86° (E) 4,635 - -58.2°
